Weather History for PAHN - October, 2012

Change the Weather History Date:

Wednesday, October 31, 2012

  Actual Average Record
Temperature  
Mean Temperature 32 °F -  
Max Temperature 37 °F 38 °F 50 °F (1981)
Min Temperature 26 °F 31 °F 6 °F (1984)
Degree Days  
Heating Degree Days 34    
Moisture  
Dew Point 29 °F    
Average Humidity 87    
Maximum Humidity 93    
Minimum Humidity 75    
Precipitation  
Precipitation 0.07 in - - ()
Sea Level Pressure  
Sea Level Pressure 29.65 in    
Wind  
Wind Speed 18 mph (ENE)    
Max Wind Speed 24 mph    
Max Gust Speed 44 mph    
Visibility 4 miles    
Events Snow    
Averages and records for this station are not official NWS values.
T = Trace of Precipitation, MM = Missing Value Source: NWS Daily Summary

Daily Weather History Graph

Daily Weather History Graph

Search for Another Location

Airport or City:

Trip Planner

Search our weather history database for the weather conditions in past years. The results will help you decide how hot, cold, wet, or windy it might be!

Date:

Astronomy

Oct. 31, 2012 Rise Set
Actual Time 8:20 AM AKDT 5:09 PM AKDT
Civil Twilight 7:36 AM AKDT 5:53 PM AKDT
Nautical Twilight 6:48 AM AKDT 6:42 PM AKDT
Astronomical Twilight 6:00 AM AKDT 7:29 PM AKDT
Moon 5:54 PM AKDT 10:39 AM AKDT
Length of Visible Light 10h 17m
Length of Day
8h 49m
Waning Gibbous, 96% of the Moon is Illuminated
Oct 31
Waning Gibbous
Nov 6
Last Quarter
Nov 13
New
Nov 20
First Quarter
Nov 28
Full

Hourly Weather History & Observations

Time (AKDT) Temp. Windchill Dew Point Humidity Pressure Visibility Wind Dir Wind Speed Gust Speed Precip Events Conditions
12:01 AM 33.8 °F 22.8 °F 30.2 °F 87% 29.68 in 2.5 mi East 18.4 mph 40.3 mph 0.00 in Snow Light Snow
12:16 AM 33.8 °F 22.8 °F 30.2 °F 87% 29.68 in 3.0 mi East 18.4 mph 31.1 mph 0.01 in Snow Light Snow
12:29 AM 33.8 °F 22.5 °F 30.2 °F 87% 29.68 in 2.5 mi East 19.6 mph 36.8 mph 0.01 in Snow Light Snow
12:39 AM 33.8 °F 23.5 °F 30.2 °F 87% 29.67 in 1.8 mi East 16.1 mph 31.1 mph 0.01 in Snow Light Snow
12:54 AM 34.0 °F 22.4 °F 30.0 °F 85% 29.68 in 2.5 mi East 20.7 mph 35.7 mph 0.01 in Snow Light Snow
1:24 AM 33.8 °F 22.8 °F 30.2 °F 87% 29.66 in 3.0 mi East 18.4 mph 41.4 mph 0.00 in Snow Light Snow
1:37 AM 33.8 °F 21.6 °F 30.2 °F 87% 29.66 in 2.5 mi East 23.0 mph 34.5 mph 0.00 in Snow Light Snow
1:50 AM 33.8 °F 22.8 °F 30.2 °F 87% 29.66 in 2.5 mi East 18.4 mph 43.7 mph 0.00 in Snow Light Snow
1:54 AM 34.0 °F 21.5 °F 30.9 °F 89% 29.67 in 2.5 mi East 24.2 mph 34.5 mph 0.00 in Snow Light Snow
2:02 AM 33.8 °F 22.5 °F 30.2 °F 87% 29.65 in 2.0 mi ENE 19.6 mph 35.7 mph 0.00 in Snow Light Snow
2:17 AM 33.8 °F 21.6 °F 30.2 °F 87% 29.65 in 1.8 mi ENE 23.0 mph 39.1 mph 0.01 in Snow Light Snow
2:31 AM 33.8 °F 22.2 °F 30.2 °F 87% 29.64 in 3.0 mi ENE 20.7 mph 35.7 mph 0.01 in Snow Light Snow
2:34 AM 33.8 °F 21.6 °F 30.2 °F 87% 29.63 in 4.0 mi ENE 23.0 mph 35.7 mph 0.01 in Snow Light Snow
2:54 AM 34.0 °F 22.4 °F 30.9 °F 89% 29.65 in 2.5 mi ENE 20.7 mph 36.8 mph 0.01 in Snow Light Snow
3:07 AM 33.8 °F 21.6 °F 30.2 °F 87% 29.63 in 2.5 mi ENE 23.0 mph 35.7 mph 0.01 in Snow Light Snow
3:14 AM 33.8 °F 21.9 °F 30.2 °F 87% 29.62 in 4.0 mi ENE 21.9 mph 35.7 mph 0.01 in Snow Light Snow
3:29 AM 35.6 °F 24.2 °F 30.2 °F 81% 29.62 in 7.0 mi East 21.9 mph 38.0 mph 0.01 in Snow Light Snow
3:54 AM 35.1 °F 23.3 °F 30.0 °F 82% 29.62 in 9.0 mi ENE 23.0 mph 40.3 mph 0.01 in Snow Light Snow
4:54 AM 35.1 °F 23.3 °F 30.9 °F 85% 29.62 in 2.5 mi ENE 23.0 mph 38.0 mph 0.00 in Snow Light Snow
5:01 AM 35.6 °F 24.2 °F 30.2 °F 81% 29.61 in 4.0 mi ENE 21.9 mph 34.5 mph 0.00 in Snow Light Snow
5:54 AM 35.1 °F 23.0 °F 30.0 °F 82% 29.61 in 4.0 mi ENE 24.2 mph 35.7 mph 0.00 in Snow Light Snow
6:28 AM 33.8 °F 22.5 °F 30.2 °F 87% 29.60 in 2.5 mi ENE 19.6 mph 32.2 mph 0.00 in Snow Light Snow
6:38 AM 33.8 °F 22.2 °F 30.2 °F 87% 29.60 in 3.0 mi East 20.7 mph 29.9 mph 0.00 in Snow Light Snow
6:54 AM 34.0 °F 22.4 °F 30.0 °F 85% 29.61 in 4.0 mi ENE 20.7 mph 31.1 mph 0.00 in Snow Light Snow
7:54 AM 34.0 °F 23.0 °F 30.0 °F 85% 29.61 in 3.0 mi ENE 18.4 mph 33.4 mph 0.00 in Snow Light Snow
8:11 AM 33.8 °F 23.5 °F 30.2 °F 87% 29.61 in 3.0 mi ENE 16.1 mph 31.1 mph 0.00 in Snow Light Snow
8:18 AM 33.8 °F 22.5 °F 30.2 °F 87% 29.61 in 2.5 mi East 19.6 mph 35.7 mph 0.00 in Snow Light Snow
8:35 AM 33.8 °F 23.5 °F 30.2 °F 87% 29.61 in 4.0 mi East 16.1 mph 32.2 mph 0.00 in Snow Light Snow
8:49 AM 33.8 °F 21.9 °F 30.2 °F 87% 29.60 in 2.5 mi ENE 21.9 mph 36.8 mph 0.01 in Snow Light Snow
8:54 AM 34.0 °F 22.4 °F 30.9 °F 89% 29.61 in 3.0 mi East 20.7 mph 36.8 mph 0.01 in Snow Light Snow
9:04 AM 33.8 °F 24.3 °F 30.2 °F 87% 29.61 in 2.5 mi ENE 13.8 mph 33.4 mph 0.00 in Snow Light Snow
9:20 AM 33.8 °F 22.5 °F 30.2 °F 87% 29.61 in 1.2 mi East 19.6 mph 34.5 mph 0.00 in Snow Light Snow
9:34 AM 33.8 °F 22.5 °F 30.2 °F 87% 29.61 in 2.5 mi East 19.6 mph 32.2 mph 0.00 in Snow Light Snow
9:44 AM 33.8 °F 22.2 °F 30.2 °F 87% 29.61 in 3.0 mi ENE 20.7 mph 34.5 mph 0.00 in Snow Light Snow
9:54 AM 34.0 °F 23.8 °F 30.9 °F 89% 29.62 in 3.0 mi ENE 16.1 mph 34.5 mph 0.00 in Snow Light Snow
10:01 AM 33.8 °F 23.2 °F 30.2 °F 87% 29.61 in 2.5 mi ENE 17.3 mph 32.2 mph 0.00 in Snow Light Snow
10:11 AM 33.8 °F 22.5 °F 30.2 °F 87% 29.62 in 3.0 mi East 19.6 mph 31.1 mph 0.00 in Snow Light Snow
10:38 AM 35.6 °F 24.8 °F 32.0 °F 87% 29.61 in 5.0 mi East 19.6 mph 34.5 mph 0.00 in Snow Light Snow
10:54 AM 35.1 °F 25.5 °F 32.0 °F 89% 29.62 in 9.0 mi East 15.0 mph 26.5 mph 0.00 in Snow Light Snow
11:06 AM 35.6 °F 25.2 °F 33.8 °F 93% 29.61 in 9.0 mi East 18.4 mph 25.3 mph 0.00 in   Overcast
11:42 AM 37.4 °F 28.2 °F 32.0 °F 81% 29.62 in 10.0 mi East 16.1 mph 24.2 mph 0.01 in   Overcast
11:54 AM 37.0 °F 28.9 °F 32.0 °F 82% 29.63 in 10.0 mi East 12.7 mph 23.0 mph 0.01 in   Overcast
12:45 PM 37.4 °F 30.3 °F 32.0 °F 81% 29.63 in 10.0 mi East 10.4 mph 25.3 mph N/A   Overcast
12:54 PM 37.0 °F 28.5 °F 32.0 °F 82% 29.64 in 10.0 mi East 13.8 mph 25.3 mph N/A   Overcast
1:05 PM 37.4 °F 28.9 °F 32.0 °F 81% 29.63 in 10.0 mi East 13.8 mph 25.3 mph N/A   Overcast
1:26 PM 37.4 °F 28.2 °F 30.2 °F 75% 29.63 in 10.0 mi East 16.1 mph 27.6 mph N/A   Overcast
1:54 PM 37.0 °F 28.1 °F 30.9 °F 79% 29.64 in 10.0 mi East 15.0 mph 24.2 mph N/A   Overcast
2:54 PM 37.0 °F 28.5 °F 30.9 °F 79% 29.64 in 10.0 mi East 13.8 mph 21.9 mph N/A   Overcast
3:54 PM 36.0 °F 29.6 °F 32.0 °F 86% 29.65 in 10.0 mi East 8.1 mph 16.1 mph N/A   Overcast
4:54 PM 36.0 °F 29.6 °F 32.0 °F 86% 29.66 in 10.0 mi East 8.1 mph - 0.00 in   Overcast
5:54 PM 30.9 °F 21.7 °F 28.0 °F 89% 29.68 in 4.0 mi WNW 11.5 mph - 0.00 in Snow Light Snow
6:05 PM 30.2 °F 20.8 °F 28.4 °F 93% 29.67 in 1.8 mi WNW 11.5 mph - 0.00 in Snow Light Snow
6:28 PM 30.2 °F 20.8 °F 28.4 °F 93% 29.67 in 2.0 mi WNW 11.5 mph - 0.01 in Snow Light Snow
6:39 PM 28.4 °F 18.5 °F 26.6 °F 93% 29.68 in 2.5 mi WNW 11.5 mph - 0.01 in Snow Light Snow
6:49 PM 28.4 °F 19.7 °F 26.6 °F 93% 29.68 in 4.0 mi WNW 9.2 mph - 0.01 in Snow Light Snow
6:54 PM 28.9 °F 19.8 °F 27.0 °F 92% 29.69 in 4.0 mi WNW 10.4 mph - 0.01 in Snow Light Snow
7:54 PM 28.0 °F 17.5 °F 26.1 °F 92% 29.70 in 3.0 mi WNW 12.7 mph - 0.00 in Snow Light Snow
7:57 PM 28.4 °F 17.0 °F 26.6 °F 93% 29.70 in 2.5 mi WNW 15.0 mph - 0.01 in Snow Light Snow
8:28 PM 28.4 °F 17.0 °F 24.8 °F 86% 29.70 in 1.5 mi WNW 15.0 mph - 0.01 in Snow Light Snow
8:54 PM 28.0 °F 16.5 °F 25.0 °F 88% 29.72 in 1.8 mi WNW 15.0 mph - 0.01 in Snow Light Snow
9:26 PM 28.4 °F 15.8 °F 24.8 °F 86% 29.72 in 2.5 mi WNW 18.4 mph - 0.00 in Snow Light Snow
9:43 PM 26.6 °F 14.7 °F 24.8 °F 93% 29.73 in 1.2 mi WNW 15.0 mph - 0.00 in Snow Light Snow
9:54 PM 27.0 °F 14.7 °F 24.1 °F 89% 29.73 in 1.8 mi WNW 16.1 mph - 0.00 in Snow Light Snow
10:04 PM 26.6 °F 15.2 °F 24.8 °F 93% 29.73 in 3.0 mi WNW 13.8 mph - 0.00 in Snow Light Snow
10:54 PM 27.0 °F 15.6 °F 24.1 °F 89% 29.75 in 6.0 mi WNW 13.8 mph - 0.00 in Snow Light Snow
11:43 PM 26.6 °F 14.7 °F 23.0 °F 86% 29.76 in 1.8 mi WNW 15.0 mph - 0.00 in Snow Light Snow
11:54 PM 26.1 °F 15.0 °F 23.0 °F 88% 29.77 in 1.8 mi WNW 12.7 mph - 0.00 in Snow Light Snow